• In Deutschland
  • Länderverzeichnis
  • Für 7 Tage
  • Wassertemperatur
  • Satellitenkarten
  • Wetterkarte
  • Widgets
  • user-avatar
    Anmelden

    Stündliche Wetter Kreta

    Heute, 21 Mai, Montag

    Zeit Temperatur Niederschläge Wind Luftdruck Luftfeuchtigkeit
    00:00 +21°C° 0 mm 4 m/S 707 mmHg 62%
    01:00 +20°C° 0 mm 4 m/S 706 mmHg 60%
    02:00 +20°C° 0 mm 4 m/S 706 mmHg 64%
    03:00 +20°C° 0 mm 4 m/S 706 mmHg 63%
    04:00 +19°C° 0 mm 3 m/S 706 mmHg 62%
    05:00 +19°C° 0 mm 3 m/S 706 mmHg 60%
    06:00 +21°C° 0 mm 3 m/S 706 mmHg 54%
    07:00 +22°C° 0 mm 4 m/S 706 mmHg 47%
    08:00 +25°C° 0 mm 4 m/S 706 mmHg 39%
    09:00 +26°C° 0 mm 4 m/S 706 mmHg 38%
    10:00 +26°C° 0 mm 5 m/S 706 mmHg 38%
    11:00 +27°C° 0 mm 5 m/S 706 mmHg 37%
    12:00 +27°C° 0 mm 5 m/S 706 mmHg 39%
    13:00 +27°C° 0 mm 5 m/S 706 mmHg 41%
    14:00 +23°C° 0 mm 4 m/S 706 mmHg 54%
    15:00 +23°C° 0 mm 4 m/S 706 mmHg 54%
    16:00 +24°C° 0 mm 3 m/S 706 mmHg 54%
    17:00 +24°C° 0 mm 2 m/S 706 mmHg 54%
    18:00 +23°C° 0 mm 2 m/S 706 mmHg 58%
    19:00 +23°C° 0 mm 2 m/S 706 mmHg 62%
    20:00 +21°C° 0 mm 2 m/S 706 mmHg 66%
    21:00 +21°C° 0 mm 2 m/S 706 mmHg 67%
    22:00 +20°C° 0 mm 3 m/S 706 mmHg 68%
    23:00 +20°C° 0 mm 3 m/S 707 mmHg 70%

    Morgen, 22 Mai, Dienstag

    Zeit Temperatur Niederschläge Wind Luftdruck Luftfeuchtigkeit
    00:00 +20°C° 0 mm 3 m/S 707 mmHg 70%
    01:00 +19°C° 0 mm 4 m/S 707 mmHg 71%
    02:00 +19°C° 0 mm 4 m/S 707 mmHg 72%
    03:00 +19°C° 0 mm 4 m/S 707 mmHg 74%
    04:00 +18°C° 0 mm 4 m/S 707 mmHg 75%
    05:00 +18°C° 0 mm 4 m/S 707 mmHg 77%
    06:00 +20°C° 0 mm 4 m/S 708 mmHg 70%
    07:00 +21°C° 0 mm 4 m/S 708 mmHg 63%
    08:00 +22°C° 0 mm 4 m/S 708 mmHg 56%
    09:00 +25°C° 0 mm 4 m/S 709 mmHg 52%
    10:00 +26°C° 0 mm 3 m/S 709 mmHg 48%
    11:00 +27°C° 0 mm 2 m/S 710 mmHg 44%
    12:00 +27°C° 0 mm 2 m/S 710 mmHg 46%
    13:00 +27°C° 0 mm 2 m/S 710 mmHg 47%
    14:00 +27°C° 0 mm 2 m/S 710 mmHg 49%
    15:00 +26°C° 0 mm 2 m/S 710 mmHg 52%
    16:00 +26°C° 0 mm 2 m/S 710 mmHg 54%
    17:00 +25°C° 0 mm 2 m/S 710 mmHg 56%
    18:00 +24°C° 0 mm 2 m/S 710 mmHg 60%
    19:00 +23°C° 0 mm 2 m/S 710 mmHg 64%
    20:00 +22°C° 0 mm 1 m/S 710 mmHg 67%
    21:00 +22°C° 0 mm 1 m/S 710 mmHg 69%
    22:00 +21°C° 0 mm 1 m/S 710 mmHg 70%
    23:00 +20°C° 0 mm 2 m/S 710 mmHg 71%

    übermorgen, 23 Mai, Mittwoch

    Zeit Temperatur Niederschläge Wind Luftdruck Luftfeuchtigkeit
    00:00 +21°C° 0 mm 1 m/S 710 mmHg 72%
    01:00 +20°C° 0 mm 1 m/S 710 mmHg 73%
    02:00 +20°C° 0 mm 1 m/S 710 mmHg 74%
    03:00 +20°C° 0 mm 1 m/S 710 mmHg 72%
    04:00 +19°C° 0 mm 2 m/S 710 mmHg 69%
    05:00 +19°C° 0 mm 2 m/S 710 mmHg 66%
    06:00 +20°C° 0 mm 2 m/S 710 mmHg 61%
    07:00 +21°C° 0 mm 2 m/S 711 mmHg 56%
    08:00 +24°C° 0 mm 2 m/S 711 mmHg 51%
    09:00 +24°C° 0 mm 2 m/S 711 mmHg 50%
    10:00 +24°C° 0 mm 2 m/S 711 mmHg 49%
    11:00 +25°C° 0 mm 2 m/S 711 mmHg 49%
    12:00 +25°C° 0 mm 3 m/S 711 mmHg 47%
    13:00 +26°C° 0 mm 4 m/S 711 mmHg 46%
    14:00 +27°C° 0 mm 5 m/S 711 mmHg 45%
    15:00 +27°C° 0 mm 4 m/S 710 mmHg 46%
    16:00 +26°C° 0 mm 4 m/S 710 mmHg 48%
    17:00 +26°C° 0 mm 3 m/S 710 mmHg 50%
    18:00 +25°C° 0 mm 3 m/S 710 mmHg 55%
    19:00 +24°C° 0 mm 2 m/S 710 mmHg 60%
    20:00 +21°C° 0 mm 2 m/S 709 mmHg 65%
    21:00 +21°C° 0 mm 2 m/S 709 mmHg 64%
    22:00 +21°C° 0 mm 2 m/S 709 mmHg 63%
    23:00 +21°C° 0 mm 2 m/S 709 mmHg 62%

    24 Mai, Donnerstag

    Zeit Temperatur Niederschläge Wind Luftdruck Luftfeuchtigkeit
    00:00 +20°C° 0 mm 2 m/S 709 mmHg 63%
    01:00 +20°C° 0 mm 2 m/S 709 mmHg 65%
    02:00 +20°C° 0 mm 1 m/S 708 mmHg 66%
    03:00 +19°C° 0 mm 2 m/S 708 mmHg 67%
    04:00 +19°C° 0 mm 2 m/S 708 mmHg 69%
    05:00 +19°C° 0 mm 2 m/S 708 mmHg 70%
    06:00 +20°C° 0 mm 2 m/S 708 mmHg 65%
    07:00 +23°C° 0 mm 2 m/S 708 mmHg 59%
    08:00 +24°C° 0 mm 2 m/S 708 mmHg 54%
    09:00 +25°C° 0 mm 3 m/S 708 mmHg 50%
    10:00 +26°C° 0 mm 3 m/S 708 mmHg 47%
    11:00 +27°C° 0 mm 4 m/S 708 mmHg 43%
    12:00 +27°C° 0 mm 4 m/S 708 mmHg 43%
    13:00 +27°C° 0 mm 5 m/S 708 mmHg 44%
    14:00 +27°C° 0 mm 6 m/S 708 mmHg 44%
    15:00 +27°C° 0 mm 5 m/S 707 mmHg 48%
    16:00 +26°C° 0 mm 5 m/S 707 mmHg 52%
    17:00 +25°C° 0 mm 5 m/S 706 mmHg 55%
    18:00 +23°C° 0 mm 4 m/S 706 mmHg 61%
    19:00 +22°C° 0 mm 4 m/S 706 mmHg 67%
    20:00 +20°C° 0 mm 3 m/S 706 mmHg 73%
    21:00 +20°C° 0 mm 3 m/S 706 mmHg 73%
    22:00 +20°C° 0 mm 3 m/S 706 mmHg 74%
    23:00 +19°C° 0 mm 3 m/S 706 mmHg 74%

    25 Mai, Freitag

    Zeit Temperatur Niederschläge Wind Luftdruck Luftfeuchtigkeit
    00:00 +19°C° 0 mm 4 m/S 706 mmHg 74%
    01:00 +18°C° 0 mm 4 m/S 705 mmHg 75%
    02:00 +18°C° 0 mm 4 m/S 705 mmHg 75%
    03:00 +18°C° 0 mm 4 m/S 705 mmHg 75%
    04:00 +17°C° 0 mm 4 m/S 705 mmHg 76%
    05:00 +16°C° 0 mm 5 m/S 704 mmHg 76%
    06:00 +17°C° 0 mm 5 m/S 705 mmHg 70%
    07:00 +19°C° 0 mm 5 m/S 705 mmHg 65%
    08:00 +21°C° 0 mm 5 m/S 705 mmHg 59%
    09:00 +22°C° 0 mm 5 m/S 705 mmHg 56%
    10:00 +23°C° 0 mm 5 m/S 706 mmHg 53%
    11:00 +25°C° 0 mm 5 m/S 706 mmHg 49%
    12:00 +25°C° 0 mm 5 m/S 706 mmHg 48%
    13:00 +25°C° 0 mm 5 m/S 706 mmHg 46%
    14:00 +26°C° 0 mm 5 m/S 706 mmHg 45%
    15:00 +24°C° 0 mm 6 m/S 705 mmHg 46%
    16:00 +24°C° 0 mm 6 m/S 705 mmHg 47%
    17:00 +23°C° 0 mm 6 m/S 705 mmHg 49%
    18:00 +22°C° 0 mm 6 m/S 705 mmHg 54%
    19:00 +21°C° 0 mm 5 m/S 705 mmHg 60%
    20:00 +19°C° 0 mm 5 m/S 705 mmHg 65%
    21:00 +19°C° 0 mm 5 m/S 705 mmHg 68%
    22:00 +17°C° 0 mm 5 m/S 705 mmHg 70%
    23:00 +17°C° 0 mm 5 m/S 705 mmHg 72%

    26 Mai, Samstag

    Zeit Temperatur Niederschläge Wind Luftdruck Luftfeuchtigkeit
    00:00 +17°C° 0 mm 5 m/S 705 mmHg 72%
    01:00 +16°C° 0 mm 5 m/S 705 mmHg 72%
    02:00 +16°C° 0 mm 5 m/S 705 mmHg 71%
    03:00 +16°C° 0 mm 5 m/S 705 mmHg 72%
    04:00 +16°C° 0 mm 5 m/S 705 mmHg 72%
    05:00 +16°C° 0 mm 6 m/S 705 mmHg 73%
    06:00 +17°C° 0 mm 6 m/S 705 mmHg 69%
    07:00 +19°C° 0 mm 6 m/S 705 mmHg 64%
    08:00 +21°C° 0 mm 6 m/S 705 mmHg 60%
    09:00 +21°C° 0,1 mm 6 m/S 706 mmHg 58%
    10:00 +22°C° 0,1 mm 6 m/S 706 mmHg 56%
    11:00 +23°C° 0,1 mm 6 m/S 706 mmHg 54%
    12:00 +23°C° 0,1 mm 6 m/S 706 mmHg 54%
    13:00 +23°C° 0,1 mm 6 m/S 706 mmHg 54%
    14:00 +23°C° 0,1 mm 6 m/S 706 mmHg 54%
    15:00 +23°C° 0 mm 6 m/S 706 mmHg 55%
    16:00 +22°C° 0 mm 6 m/S 706 mmHg 56%
    17:00 +22°C° 0 mm 6 m/S 706 mmHg 57%
    18:00 +21°C° 0,1 mm 6 m/S 706 mmHg 63%
    19:00 +20°C° 0,1 mm 5 m/S 706 mmHg 68%
    20:00 +19°C° 0,1 mm 5 m/S 706 mmHg 73%
    21:00 +19°C° 0 mm 5 m/S 706 mmHg 74%
    22:00 +17°C° 0 mm 5 m/S 706 mmHg 75%
    23:00 +17°C° 0 mm 5 m/S 706 mmHg 76%
    Mehr zeigen